Weather History for Cross City, FL

Change the Weather History Date:

Thursday, September 19, 2013

  Actual Average Record
Temperature  
Mean Temperature 81 °F 78 °F  
Max Temperature 93 °F 88 °F 93 °F (2005)
Min Temperature 69 °F 68 °F 60 °F (2003)
Degree Days  
Heating Degree Days 0 0  
Month to date heating degree days 0 0  
Since 1 July heating degree days 0 0  
Cooling Degree Days 16 13  
Month to date cooling degree days 317 273  
Year to date cooling degree days 2362 2211  
Growing Degree Days 31 (Base 50)    
Moisture  
Dew Point 69 °F    
Average Humidity 74    
Maximum Humidity 97    
Minimum Humidity 47    
Precipitation  
Precipitation 0.01 in 0.13 in 2.01 in (2011)
Month to date precipitation 0.76 3.22  
Year to date precipitation 53.54 38.59  
Sea Level Pressure  
Sea Level Pressure 30.05 in    
Wind  
Wind Speed 4 mph (NE)    
Max Wind Speed 10 mph    
Max Gust Speed 16 mph    
T = Trace of Precipitation, MM = Missing Value Source: NWS Daily Summary

Daily Weather History Graph

Daily Weather History Graph

Search for Another Location

Airport:

Trip Planner

Search our weather history database for the weather conditions in past years. The results will help you decide how hot, cold, wet, or windy it might be!

Date:

Astronomy

Sep. 19, 2013 Rise Set
Actual Time 7:19 AM EDT 7:32 PM EDT
Civil Twilight 6:55 AM EDT 7:56 PM EDT
Nautical Twilight 6:27 AM EDT 8:23 PM EDT
Astronomical Twilight 5:59 AM EDT 8:51 PM EDT
Moon 7:36 PM EDT (9/19) 7:23 AM EDT (9/19)
Length of Visible Light 13h 00m
Length of Day
12h 13m
Full, 100% of the Moon is Illuminated
Sep 19
Full
Sep 26
Last Quarter
Oct 4
New
Oct 11
First Quarter
Oct 18
Full

Hourly Weather History & Observations

Time (EDT) Temp. Heat Index Dew Point Humidity Pressure Visibility Wind Dir Wind Speed Gust Speed Precip Events Conditions
12:53 AM 72.0 °F - 66.0 °F 81% 30.08 in - NE 4.6 mph - N/A   Unknown
1:53 AM 71.1 °F - 66.0 °F 84% 30.06 in - NE 4.6 mph - N/A   Unknown
2:53 AM 69.1 °F - 66.0 °F 90% 30.05 in - NNE 3.5 mph - N/A   Unknown
3:53 AM 69.1 °F - 66.0 °F 90% 30.04 in - ENE 3.5 mph - N/A   Unknown
4:53 AM 69.1 °F - 66.9 °F 93% 30.03 in - NE 3.5 mph - N/A   Unknown
5:53 AM 69.1 °F - 66.9 °F 93% 30.03 in - NE 4.6 mph - N/A   Unknown
6:53 AM 70.0 °F - 68.0 °F 93% 30.04 in - Calm Calm - N/A   Unknown
7:53 AM 70.0 °F - 68.0 °F 93% 30.05 in - NE 3.5 mph - N/A   Unknown
8:53 AM 73.9 °F - 69.1 °F 85% 30.06 in - NE 6.9 mph - 0.01 in   Unknown
9:53 AM 79.0 °F - 70.0 °F 74% 30.08 in - NE 5.8 mph - N/A   Unknown
10:53 AM 84.0 °F 89.0 °F 71.1 °F 65% 30.09 in - East 5.8 mph - N/A   Unknown
11:53 AM 86.0 °F 91.5 °F 71.1 °F 61% 30.09 in - Variable 6.9 mph - N/A   Unknown
12:53 PM 86.0 °F 91.5 °F 71.1 °F 61% 30.08 in - NE 8.1 mph - N/A   Unknown
1:53 PM 87.1 °F 92.0 °F 70.0 °F 57% 30.05 in - Variable 4.6 mph - N/A   Unknown
2:53 PM 90.0 °F 95.4 °F 70.0 °F 52% 30.02 in - Variable 5.8 mph - N/A   Unknown
3:53 PM 91.9 °F 96.9 °F 69.1 °F 47% 30.01 in - Variable 4.6 mph - N/A   Unknown
4:53 PM 91.0 °F 95.2 °F 68.0 °F 47% 30.00 in - Variable 3.5 mph - N/A   Unknown
5:53 PM 90.0 °F 93.6 °F 68.0 °F 48% 30.00 in - NNE 9.2 mph - N/A   Unknown
6:53 PM 82.9 °F 87.5 °F 71.1 °F 67% 30.01 in - East 5.8 mph - N/A   Unknown
7:53 PM 80.1 °F 83.2 °F 70.0 °F 71% 30.02 in - East 6.9 mph - N/A   Unknown
8:53 PM 78.1 °F - 70.0 °F 76% 30.04 in - East 5.8 mph - N/A   Unknown
9:53 PM 75.9 °F - 69.1 °F 79% 30.04 in - East 3.5 mph - N/A   Unknown
10:53 PM 73.9 °F - 70.0 °F 87% 30.06 in - Calm Calm - N/A   Unknown
11:53 PM 73.9 °F - 71.1 °F 91% 30.05 in - Calm Calm - N/A   Unknown